Find Starlink 34448

NORAD ID: 64291 Int'l Des: 2025-123 Owner: SPXS Country: US Constellation: starlink operational
LEOCIRCULAR

当前视图

正在加载3D地球...

About Starlink 34448

Starlink 34448 (NORAD 64291) is a starlink constellation satellite (v2 mini) launched Jun 8, 2025 by SPXS of US. It operates in LEO, CIRCULAR orbit with a mass of 575.00 kg.

关于 Starlink 34448

正在加载描述...

即将过境

Passes for default location (London). Set your location on the main map for personalized predictions.

高度历史

Loading altitude history...

两行轨道根数

1 64291U 25123A 26194.50126478 .00002133 00000-0 18644-3 0 9995
2 64291 69.9993 237.2544 0003744 269.0613 91.0117 14.98336468 61683
Epoch: Jul 13, 2026 • Age: 19 hours

当前状态

高度 585.4 km
远地点 / 近地点 N/A
速度 7.57 km/s
星下点 -41.00°S, 178.83°E
发射日期 Jun 8, 2025
运行时间 1 year
类型 internet

技术详情

分类 Payload
质量 575.00 kg
干质量 530.00 kg
总质量 575.00 kg
长度 0.30 m
直径 4.10 m
跨度 29.00 m
形状 Box + pan
制造商 SPXS
平台类型 Starlink V2MO
阶段状态 In Orbit
所有者/国家 SPXS/US

Most Searched